Time,TemperatureF,DewpointF,PressureIn,WindDirection,WindDirectionDegrees,WindSpeedMPH,WindSpeedGustMPH,Humidity,HourlyPrecipIn,Conditions,Clouds,dailyrainin,SolarRadiationWatts/m^2,SoftwareType,DateUTC
2013-02-06 00:01:00,41.0,39.0,-100.00,NNW,344,3.0,6.0,92,0.00,,,0.00,0.000000,,2013-02-06 08:01:00,
2013-02-06 00:11:00,42.0,39.0,-100.00,WNW,303,2.0,6.0,90,0.00,,,0.00,0.000000,,2013-02-06 08:11:00,
2013-02-06 00:42:00,42.0,39.0,-100.00,WNW,303,2.0,6.0,90,0.00,,,0.00,0.000000,,2013-02-06 08:42:00,
2013-02-06 00:53:00,42.0,39.0,-100.00,WNW,303,2.0,6.0,90,0.00,,,0.00,0.000000,,2013-02-06 08:53:00,
2013-02-06 01:01:00,42.0,39.0,-100.00,WNW,303,2.0,6.0,90,0.00,,,0.00,0.000000,,2013-02-06 09:01:00,
2013-02-06 01:11:00,42.0,40.0,-100.00,NW,311,6.0,8.0,92,0.00,,,0.00,0.000000,,2013-02-06 09:11:00,
2013-02-06 01:32:00,42.0,40.0,-100.00,NW,311,6.0,8.0,92,0.00,,,0.00,0.000000,,2013-02-06 09:32:00,
2013-02-06 01:42:00,42.0,40.0,-100.00,NW,311,6.0,8.0,92,0.00,,,0.00,0.000000,,2013-02-06 09:42:00,
2013-02-06 01:52:00,42.0,40.0,-100.00,NW,311,6.0,8.0,92,0.00,,,0.00,0.000000,,2013-02-06 09:52:00,
2013-02-06 02:01:00,42.0,40.0,-100.00,NW,311,6.0,8.0,92,0.00,,,0.00,0.000000,,2013-02-06 10:01:00,
2013-02-06 02:11:00,40.0,37.0,-100.00,ENE,60,2.0,5.0,88,0.00,,,0.00,0.000000,,2013-02-06 10:11:00,
2013-02-06 02:32:00,40.0,37.0,-100.00,ENE,60,2.0,5.0,88,0.00,,,0.00,0.000000,,2013-02-06 10:32:00,
2013-02-06 02:42:00,40.0,37.0,-100.00,ENE,60,2.0,5.0,88,0.00,,,0.00,0.000000,,2013-02-06 10:42:00,
2013-02-06 02:52:00,40.0,37.0,-100.00,ENE,60,2.0,5.0,88,0.00,,,0.00,0.000000,,2013-02-06 10:52:00,
2013-02-06 03:01:00,40.0,37.0,-100.00,ENE,60,2.0,5.0,88,0.00,,,0.00,0.000000,,2013-02-06 11:01:00,
2013-02-06 03:11:00,38.0,34.0,-100.00,North,9,4.0,12.0,85,0.00,,,0.00,0.000000,,2013-02-06 11:11:00,
2013-02-06 03:32:00,38.0,34.0,-100.00,North,9,4.0,12.0,85,0.00,,,0.00,0.000000,,2013-02-06 11:32:00,
2013-02-06 03:42:00,38.0,34.0,-100.00,North,9,4.0,12.0,85,0.00,,,0.00,0.000000,,2013-02-06 11:42:00,
2013-02-06 03:53:00,38.0,34.0,-100.00,North,9,4.0,12.0,85,0.00,,,0.00,0.000000,,2013-02-06 11:53:00,
2013-02-06 04:01:00,38.0,34.0,-100.00,North,9,4.0,12.0,85,0.00,,,0.00,0.000000,,2013-02-06 12:01:00,
2013-02-06 04:11:00,36.0,31.0,-100.00,East,92,3.0,8.0,83,0.00,,,0.00,0.000000,,2013-02-06 12:11:00,
2013-02-06 04:32:00,36.0,31.0,-100.00,East,92,3.0,8.0,83,0.00,,,0.00,0.000000,,2013-02-06 12:32:00,
2013-02-06 04:42:00,36.0,31.0,-100.00,East,92,3.0,8.0,83,0.00,,,0.00,0.000000,,2013-02-06 12:42:00,
2013-02-06 04:52:00,36.0,31.0,-100.00,East,92,3.0,8.0,83,0.00,,,0.00,0.000000,,2013-02-06 12:52:00,
2013-02-06 05:01:00,36.0,31.0,-100.00,East,92,3.0,8.0,83,0.00,,,0.00,0.000000,,2013-02-06 13:01:00,
2013-02-06 05:11:00,35.0,27.0,-100.00,ESE,104,4.0,7.0,72,0.00,,,0.00,0.000000,,2013-02-06 13:11:00,
2013-02-06 05:32:00,35.0,27.0,-100.00,ESE,104,4.0,7.0,72,0.00,,,0.00,0.000000,,2013-02-06 13:32:00,
2013-02-06 05:42:00,35.0,27.0,-100.00,ESE,104,4.0,7.0,72,0.00,,,0.00,0.000000,,2013-02-06 13:42:00,
2013-02-06 05:52:00,35.0,27.0,-100.00,ESE,104,4.0,7.0,72,0.00,,,0.00,0.000000,,2013-02-06 13:52:00,
2013-02-06 06:01:00,35.0,27.0,-100.00,ESE,104,4.0,7.0,72,0.00,,,0.00,0.000000,,2013-02-06 14:01:00,
2013-02-06 06:11:00,35.0,25.0,-100.00,SE,127,4.0,9.0,67,0.00,,,0.00,0.000000,,2013-02-06 14:11:00,
2013-02-06 06:32:00,35.0,25.0,-100.00,SE,127,4.0,9.0,67,0.00,,,0.00,0.000000,,2013-02-06 14:32:00,
2013-02-06 06:42:00,35.0,25.0,-100.00,SE,127,4.0,9.0,67,0.00,,,0.00,0.000000,,2013-02-06 14:42:00,
2013-02-06 06:52:00,35.0,25.0,-100.00,SE,127,4.0,9.0,67,0.00,,,0.00,0.000000,,2013-02-06 14:52:00,
2013-02-06 07:01:00,35.0,25.0,-100.00,SE,127,4.0,9.0,67,0.00,,,0.00,0.000000,,2013-02-06 15:01:00,
2013-02-06 07:32:00,32.0,26.0,-100.00,ESE,112,2.0,9.0,77,0.00,,,0.00,2.000000,,2013-02-06 15:32:00,
2013-02-06 07:42:00,32.0,26.0,-100.00,ESE,112,2.0,9.0,77,0.00,,,0.00,2.000000,,2013-02-06 15:42:00,
2013-02-06 07:52:00,32.0,26.0,-100.00,ESE,112,2.0,9.0,77,0.00,,,0.00,2.000000,,2013-02-06 15:52:00,
2013-02-06 08:01:00,32.0,26.0,-100.00,ESE,112,2.0,9.0,77,0.00,,,0.00,2.000000,,2013-02-06 16:01:00,
2013-02-06 08:11:00,40.0,30.0,-100.00,ESE,112,3.0,9.0,66,0.00,,,0.00,71.000000,,2013-02-06 16:11:00,
2013-02-06 08:32:00,40.0,30.0,-100.00,ESE,112,3.0,9.0,66,0.00,,,0.00,71.000000,,2013-02-06 16:32:00,
2013-02-06 08:42:00,40.0,30.0,-100.00,ESE,112,3.0,9.0,66,0.00,,,0.00,71.000000,,2013-02-06 16:42:00,
2013-02-06 08:52:00,40.0,30.0,-100.00,ESE,112,3.0,9.0,66,0.00,,,0.00,71.000000,,2013-02-06 16:52:00,
2013-02-06 09:01:00,40.0,30.0,-100.00,ESE,112,3.0,9.0,66,0.00,,,0.00,71.000000,,2013-02-06 17:01:00,
2013-02-06 09:11:00,47.0,29.0,-100.00,ESE,111,1.0,4.0,49,0.00,,,0.00,254.000000,,2013-02-06 17:11:00,
2013-02-06 09:32:00,47.0,29.0,-100.00,ESE,111,1.0,4.0,49,0.00,,,0.00,254.000000,,2013-02-06 17:32:00,
2013-02-06 09:42:00,47.0,29.0,-100.00,ESE,111,1.0,4.0,49,0.00,,,0.00,254.000000,,2013-02-06 17:42:00,
2013-02-06 09:52:00,47.0,29.0,-100.00,ESE,111,1.0,4.0,49,0.00,,,0.00,254.000000,,2013-02-06 17:52:00,
2013-02-06 10:01:00,47.0,29.0,-100.00,ESE,111,1.0,4.0,49,0.00,,,0.00,254.000000,,2013-02-06 18:01:00,
2013-02-06 10:11:00,49.0,27.0,-100.00,West,276,5.0,8.0,42,0.00,,,0.00,415.000000,,2013-02-06 18:11:00,
2013-02-06 10:33:00,49.0,27.0,-100.00,West,276,5.0,8.0,42,0.00,,,0.00,415.000000,,2013-02-06 18:33:00,
2013-02-06 10:42:00,49.0,27.0,-100.00,West,276,5.0,8.0,42,0.00,,,0.00,415.000000,,2013-02-06 18:42:00,
2013-02-06 10:52:00,49.0,27.0,-100.00,West,276,5.0,8.0,42,0.00,,,0.00,415.000000,,2013-02-06 18:52:00,
2013-02-06 11:01:00,49.0,27.0,-100.00,West,276,5.0,8.0,42,0.00,,,0.00,415.000000,,2013-02-06 19:01:00,
2013-02-06 11:11:00,54.0,31.0,-100.00,WNW,285,6.0,10.0,41,0.00,,,0.00,539.000000,,2013-02-06 19:11:00,
2013-02-06 11:42:00,54.0,31.0,-100.00,WNW,285,6.0,10.0,41,0.00,,,0.00,539.000000,,2013-02-06 19:42:00,
2013-02-06 11:52:00,54.0,31.0,-100.00,WNW,285,6.0,10.0,41,0.00,,,0.00,539.000000,,2013-02-06 19:52:00,
2013-02-06 12:01:00,54.0,31.0,-100.00,WNW,285,6.0,10.0,41,0.00,,,0.00,539.000000,,2013-02-06 20:01:00,
2013-02-06 12:11:00,56.0,31.0,-100.00,WNW,298,6.0,11.0,39,0.00,,,0.00,608.000000,,2013-02-06 20:11:00,
2013-02-06 12:32:00,56.0,31.0,-100.00,WNW,298,6.0,11.0,39,0.00,,,0.00,608.000000,,2013-02-06 20:32:00,
2013-02-06 12:42:00,56.0,31.0,-100.00,WNW,298,6.0,11.0,39,0.00,,,0.00,608.000000,,2013-02-06 20:42:00,
2013-02-06 12:52:00,56.0,31.0,-100.00,WNW,298,6.0,11.0,39,0.00,,,0.00,608.000000,,2013-02-06 20:52:00,
2013-02-06 13:01:00,56.0,31.0,-100.00,WNW,298,6.0,11.0,39,0.00,,,0.00,608.000000,,2013-02-06 21:01:00,
2013-02-06 13:11:00,57.0,34.0,-100.00,WNW,293,10.0,13.0,42,0.00,,,0.00,616.000000,,2013-02-06 21:11:00,
2013-02-06 13:32:00,57.0,34.0,-100.00,WNW,293,10.0,13.0,42,0.00,,,0.00,616.000000,,2013-02-06 21:32:00,
2013-02-06 13:42:00,57.0,34.0,-100.00,WNW,293,10.0,13.0,42,0.00,,,0.00,616.000000,,2013-02-06 21:42:00,
2013-02-06 13:52:00,57.0,34.0,-100.00,WNW,293,10.0,13.0,42,0.00,,,0.00,616.000000,,2013-02-06 21:52:00,
2013-02-06 14:01:00,57.0,34.0,-100.00,WNW,293,10.0,13.0,42,0.00,,,0.00,616.000000,,2013-02-06 22:01:00,
2013-02-06 14:11:00,57.0,39.0,-100.00,WNW,296,10.0,15.0,50,0.00,,,0.00,569.000000,,2013-02-06 22:11:00,
2013-02-06 14:42:00,57.0,39.0,-100.00,WNW,296,10.0,15.0,50,0.00,,,0.00,569.000000,,2013-02-06 22:42:00,
2013-02-06 14:52:00,57.0,39.0,-100.00,WNW,296,10.0,15.0,50,0.00,,,0.00,569.000000,,2013-02-06 22:52:00,
2013-02-06 15:01:00,57.0,39.0,-100.00,WNW,296,10.0,15.0,50,0.00,,,0.00,569.000000,,2013-02-06 23:01:00,
2013-02-06 15:11:00,56.0,40.0,-100.00,WNW,302,10.0,15.0,55,0.00,,,0.00,467.000000,,2013-02-06 23:11:00,
2013-02-06 15:32:00,56.0,40.0,-100.00,WNW,302,10.0,15.0,55,0.00,,,0.00,467.000000,,2013-02-06 23:32:00,
2013-02-06 15:42:00,56.0,40.0,-100.00,WNW,302,10.0,15.0,55,0.00,,,0.00,467.000000,,2013-02-06 23:42:00,
2013-02-06 15:52:00,56.0,40.0,-100.00,WNW,302,10.0,15.0,55,0.00,,,0.00,467.000000,,2013-02-06 23:52:00,
2013-02-06 16:01:00,56.0,40.0,-100.00,WNW,302,10.0,15.0,55,0.00,,,0.00,467.000000,,2013-02-07 00:01:00,
2013-02-06 16:11:00,52.0,42.0,-100.00,WNW,296,10.0,16.0,68,0.00,,,0.00,230.000000,,2013-02-07 00:11:00,
2013-02-06 16:32:00,52.0,42.0,-100.00,WNW,296,10.0,16.0,68,0.00,,,0.00,230.000000,,2013-02-07 00:32:00,
2013-02-06 16:42:00,52.0,42.0,-100.00,WNW,296,10.0,16.0,68,0.00,,,0.00,230.000000,,2013-02-07 00:42:00,
2013-02-06 16:52:00,52.0,42.0,-100.00,WNW,296,10.0,16.0,68,0.00,,,0.00,230.000000,,2013-02-07 00:52:00,
2013-02-06 17:01:00,52.0,42.0,-100.00,WNW,296,10.0,16.0,68,0.00,,,0.00,230.000000,,2013-02-07 01:01:00,
2013-02-06 17:11:00,48.0,41.0,-100.00,WNW,289,7.0,15.0,77,0.00,,,0.00,127.000000,,2013-02-07 01:11:00,
2013-02-06 17:32:00,48.0,41.0,-100.00,WNW,289,7.0,15.0,77,0.00,,,0.00,127.000000,,2013-02-07 01:32:00,
2013-02-06 17:42:00,48.0,41.0,-100.00,WNW,289,7.0,15.0,77,0.00,,,0.00,127.000000,,2013-02-07 01:42:00,
2013-02-06 17:52:00,48.0,41.0,-100.00,WNW,289,7.0,15.0,77,0.00,,,0.00,127.000000,,2013-02-07 01:52:00,
2013-02-06 18:01:00,48.0,41.0,-100.00,WNW,289,7.0,15.0,77,0.00,,,0.00,127.000000,,2013-02-07 02:01:00,
2013-02-06 18:11:00,43.0,38.0,-100.00,WNW,291,3.0,11.0,84,0.00,,,0.00,8.000000,,2013-02-07 02:11:00,
2013-02-06 18:32:00,43.0,38.0,-100.00,WNW,291,3.0,11.0,84,0.00,,,0.00,8.000000,,2013-02-07 02:32:00,
2013-02-06 18:42:00,43.0,38.0,-100.00,WNW,291,3.0,11.0,84,0.00,,,0.00,8.000000,,2013-02-07 02:42:00,
2013-02-06 18:52:00,43.0,38.0,-100.00,WNW,291,3.0,11.0,84,0.00,,,0.00,8.000000,,2013-02-07 02:52:00,
2013-02-06 19:01:00,43.0,38.0,-100.00,WNW,291,3.0,11.0,84,0.00,,,0.00,8.000000,,2013-02-07 03:01:00,
2013-02-06 19:11:00,42.0,38.0,-100.00,North,358,2.0,6.0,87,0.00,,,0.00,0.000000,,2013-02-07 03:11:00,
2013-02-06 19:32:00,42.0,38.0,-100.00,North,358,2.0,6.0,87,0.00,,,0.00,0.000000,,2013-02-07 03:32:00,
2013-02-06 19:42:00,42.0,38.0,-100.00,North,358,2.0,6.0,87,0.00,,,0.00,0.000000,,2013-02-07 03:42:00,
2013-02-06 19:52:00,42.0,38.0,-100.00,North,358,2.0,6.0,87,0.00,,,0.00,0.000000,,2013-02-07 03:52:00,
2013-02-06 20:01:00,42.0,38.0,-100.00,North,358,2.0,6.0,87,0.00,,,0.00,0.000000,,2013-02-07 04:01:00,
2013-02-06 20:11:00,43.0,40.0,-100.00,WNW,300,2.0,4.0,90,0.00,,,0.00,0.000000,,2013-02-07 04:11:00,
2013-02-06 20:32:00,43.0,40.0,-100.00,WNW,300,2.0,4.0,90,0.00,,,0.00,0.000000,,2013-02-07 04:32:00,
2013-02-06 20:42:00,43.0,40.0,-100.00,WNW,300,2.0,4.0,90,0.00,,,0.00,0.000000,,2013-02-07 04:42:00,
2013-02-06 20:53:00,43.0,40.0,-100.00,WNW,300,2.0,4.0,90,0.00,,,0.00,0.000000,,2013-02-07 04:53:00,
2013-02-06 21:01:00,43.0,40.0,-100.00,WNW,300,2.0,4.0,90,0.00,,,0.00,0.000000,,2013-02-07 05:01:00,
2013-02-06 21:11:00,42.0,39.0,-100.00,NW,322,6.0,9.0,90,0.00,,,0.00,0.000000,,2013-02-07 05:11:00,
2013-02-06 21:32:00,42.0,39.0,-100.00,NW,322,6.0,9.0,90,0.00,,,0.00,0.000000,,2013-02-07 05:32:00,
2013-02-06 21:42:00,42.0,39.0,-100.00,NW,322,6.0,9.0,90,0.00,,,0.00,0.000000,,2013-02-07 05:42:00,
2013-02-06 21:52:00,42.0,39.0,-100.00,NW,322,6.0,9.0,90,0.00,,,0.00,0.000000,,2013-02-07 05:52:00,
2013-02-06 22:01:00,42.0,39.0,-100.00,NW,322,6.0,9.0,90,0.00,,,0.00,0.000000,,2013-02-07 06:01:00,
2013-02-06 22:11:00,42.0,39.0,-100.00,NW,325,5.0,9.0,90,0.00,,,0.00,0.000000,,2013-02-07 06:11:00,
2013-02-06 22:32:00,42.0,39.0,-100.00,NW,325,5.0,9.0,90,0.00,,,0.00,0.000000,,2013-02-07 06:32:00,
2013-02-06 22:43:00,42.0,39.0,-100.00,NW,325,5.0,9.0,90,0.00,,,0.00,0.000000,,2013-02-07 06:43:00,
2013-02-06 22:52:00,42.0,39.0,-100.00,NW,325,5.0,9.0,90,0.00,,,0.00,0.000000,,2013-02-07 06:52:00,
2013-02-06 23:01:00,42.0,39.0,-100.00,NW,325,5.0,9.0,90,0.00,,,0.00,0.000000,,2013-02-07 07:01:00,
2013-02-06 23:11:00,42.0,39.0,-100.00,NNW,334,5.0,8.0,88,0.00,,,0.00,0.000000,,2013-02-07 07:11:00,
2013-02-06 23:32:00,42.0,39.0,-100.00,NNW,334,5.0,8.0,88,0.00,,,0.00,0.000000,,2013-02-07 07:32:00,
2013-02-06 23:42:00,42.0,39.0,-100.00,NNW,334,5.0,8.0,88,0.00,,,0.00,0.000000,,2013-02-07 07:42:00,
2013-02-06 23:52:00,42.0,39.0,-100.00,NNW,334,5.0,8.0,88,0.00,,,0.00,0.000000,,2013-02-07 07:52:00,